カタログに戻る

SL-12 R/B

AUX MOTOR

運用中HEO
NORAD 15053·ROCKET BODY·🇷🇺 Russia

打ち上げ May 19, 1984 から Baikonur Cosmodrome

Loading…

次のパス (今後24時間)

TLE

最新Source: Space-Track

元期: Sep 12, 2026, 17:30 UTC

1 15053U 84047G   26255.72926062  .00000580  00000-0  41428-3 0  9996
2 15053  52.0918  57.1399 5502653  65.7052 341.2710  4.70632552688190

AllMySatでSL-12 R/Bをリアルタイム追跡

Download on the App Store